Time,TemperatureF,DewpointF,PressureIn,WindDirection,WindDirectionDegrees,WindSpeedMPH,WindSpeedGustMPH,Humidity,HourlyPrecipIn,Conditions,Clouds,dailyrainin,SoftwareType,DateUTC
2013-02-06 00:00:00,56.0,54.3,29.95,NE,45,2.7,3.6,94,0.00,,,0.00,WUHU216HW,2013-02-06 06:00:00,
2013-02-06 00:05:00,55.8,54.1,29.95,NE,45,2.9,2.9,94,0.00,,,0.00,WUHU216HW,2013-02-06 06:05:00,
2013-02-06 00:10:00,55.4,53.7,29.95,ENE,68,2.9,2.9,94,0.00,,,0.00,WUHU216HW,2013-02-06 06:10:00,
2013-02-06 00:15:00,55.8,54.4,29.95,ENE,68,4.5,4.7,95,0.00,,,0.00,WUHU216HW,2013-02-06 06:15:00,
2013-02-06 00:20:00,56.2,54.7,29.95,ENE,68,4.0,4.7,95,0.00,,,0.00,WUHU216HW,2013-02-06 06:20:00,
2013-02-06 00:25:00,56.0,54.5,29.95,ENE,68,4.0,4.7,95,0.00,,,0.00,WUHU216HW,2013-02-06 06:25:00,
2013-02-06 00:30:00,56.0,54.5,29.95,ENE,68,3.8,4.7,95,0.00,,,0.00,WUHU216HW,2013-02-06 06:30:00,
2013-02-06 00:35:00,55.8,54.4,29.95,ENE,68,2.9,4.0,95,0.00,,,0.00,WUHU216HW,2013-02-06 06:35:00,
2013-02-06 00:40:00,55.6,54.2,29.94,ENE,68,3.6,4.0,95,0.00,,,0.00,WUHU216HW,2013-02-06 06:40:00,
2013-02-06 00:45:00,55.6,54.2,29.94,ENE,68,4.5,4.5,95,0.00,,,0.00,WUHU216HW,2013-02-06 06:45:00,
2013-02-06 00:50:00,55.8,54.4,29.94,ENE,68,3.4,4.7,95,0.00,,,0.00,WUHU216HW,2013-02-06 06:50:00,
2013-02-06 00:55:00,56.0,54.5,29.94,ENE,68,4.0,4.7,95,0.00,,,0.00,WUHU216HW,2013-02-06 06:55:00,
2013-02-06 01:00:00,56.2,54.7,29.94,ENE,68,4.5,5.1,95,0.00,,,0.00,WUHU216HW,2013-02-06 07:00:00,
2013-02-06 01:05:00,56.2,54.7,29.94,East,90,5.4,5.6,95,0.00,,,0.00,WUHU216HW,2013-02-06 07:05:00,
2013-02-06 01:10:00,56.2,54.7,29.94,East,90,6.5,6.9,95,0.00,,,0.00,WUHU216HW,2013-02-06 07:10:00,
2013-02-06 01:15:00,56.2,54.7,29.94,East,90,5.1,6.9,95,0.00,,,0.00,WUHU216HW,2013-02-06 07:15:00,
2013-02-06 01:20:00,56.2,54.7,29.94,East,90,4.5,5.6,95,0.00,,,0.00,WUHU216HW,2013-02-06 07:20:00,
2013-02-06 01:25:00,56.2,54.7,29.94,East,90,5.1,5.6,95,0.00,,,0.00,WUHU216HW,2013-02-06 07:25:00,
2013-02-06 01:30:00,56.2,54.7,29.94,East,90,4.9,6.5,95,0.00,,,0.00,WUHU216HW,2013-02-06 07:30:00,
2013-02-06 01:35:00,56.3,54.9,29.95,ESE,113,5.6,6.5,95,0.00,,,0.00,WUHU216HW,2013-02-06 07:35:00,
2013-02-06 01:40:00,56.3,54.9,29.95,East,90,5.4,6.9,95,0.00,,,0.00,WUHU216HW,2013-02-06 07:40:00,
2013-02-06 01:45:00,56.3,54.9,29.94,East,90,6.3,7.6,95,0.00,,,0.00,WUHU216HW,2013-02-06 07:45:00,
2013-02-06 01:50:00,56.3,54.9,29.94,East,90,6.3,7.6,95,0.00,,,0.00,WUHU216HW,2013-02-06 07:50:00,
2013-02-06 01:55:00,56.3,54.9,29.94,ESE,113,8.1,8.1,95,0.00,,,0.00,WUHU216HW,2013-02-06 07:55:00,
2013-02-06 02:00:00,56.5,55.1,29.93,East,90,6.7,8.1,95,0.00,,,0.00,WUHU216HW,2013-02-06 08:00:00,
2013-02-06 02:05:00,56.5,55.1,29.93,ESE,113,6.3,6.9,95,0.00,,,0.00,WUHU216HW,2013-02-06 08:05:00,
2013-02-06 02:10:00,56.5,55.1,29.93,ESE,113,6.9,8.3,95,0.00,,,0.00,WUHU216HW,2013-02-06 08:10:00,
2013-02-06 02:15:00,56.5,55.1,29.93,ESE,113,7.2,8.3,95,0.00,,,0.00,WUHU216HW,2013-02-06 08:15:00,
2013-02-06 02:20:00,56.5,55.1,29.94,ESE,113,6.3,7.6,95,0.00,,,0.00,WUHU216HW,2013-02-06 08:20:00,
2013-02-06 02:25:00,56.5,55.1,29.94,ESE,113,4.3,6.3,95,0.00,,,0.00,WUHU216HW,2013-02-06 08:25:00,
2013-02-06 02:30:00,56.5,55.1,29.94,ESE,113,5.1,6.3,95,0.00,,,0.00,WUHU216HW,2013-02-06 08:30:00,
2013-02-06 02:35:00,56.7,55.3,29.94,ESE,113,4.0,6.3,95,0.00,,,0.00,WUHU216HW,2013-02-06 08:35:00,
2013-02-06 02:40:00,56.9,55.4,29.94,ESE,113,6.5,6.7,95,0.00,,,0.00,WUHU216HW,2013-02-06 08:40:00,
2013-02-06 02:45:00,56.9,55.2,29.94,ESE,113,8.1,8.1,94,0.00,,,0.00,WUHU216HW,2013-02-06 08:45:00,
2013-02-06 02:50:00,56.9,55.2,29.93,ESE,113,7.2,8.1,94,0.00,,,0.00,WUHU216HW,2013-02-06 08:50:00,
2013-02-06 02:55:00,56.9,55.2,29.93,ESE,113,7.2,8.3,94,0.00,,,0.00,WUHU216HW,2013-02-06 08:55:00,
2013-02-06 03:00:00,56.9,55.2,29.94,ESE,113,5.4,8.3,94,0.00,,,0.00,WUHU216HW,2013-02-06 09:00:00,
2013-02-06 03:05:00,57.1,55.4,29.94,ESE,113,5.8,7.6,94,0.00,,,0.00,WUHU216HW,2013-02-06 09:05:00,
2013-02-06 03:10:00,57.2,55.5,29.94,SE,135,6.9,6.9,94,0.00,,,0.00,WUHU216HW,2013-02-06 09:10:00,
2013-02-06 03:15:00,57.4,55.7,29.93,ESE,113,6.3,9.2,94,0.00,,,0.00,WUHU216HW,2013-02-06 09:15:00,
2013-02-06 03:20:00,57.6,55.9,29.93,ESE,113,6.0,9.2,94,0.00,,,0.00,WUHU216HW,2013-02-06 09:20:00,
2013-02-06 03:25:00,57.8,56.1,29.92,ESE,113,7.6,8.1,94,0.00,,,0.00,WUHU216HW,2013-02-06 09:25:00,
2013-02-06 03:30:00,58.0,56.3,29.92,East,90,7.6,8.1,94,0.00,,,0.00,WUHU216HW,2013-02-06 09:30:00,
2013-02-06 03:35:00,58.1,56.4,29.92,ESE,113,8.3,9.8,94,0.00,,,0.00,WUHU216HW,2013-02-06 09:35:00,
2013-02-06 03:40:00,58.1,56.4,29.92,ESE,113,6.3,9.8,94,0.00,,,0.00,WUHU216HW,2013-02-06 09:40:00,
2013-02-06 03:45:00,58.3,56.4,29.93,SE,135,6.3,8.7,93,0.00,,,0.00,WUHU216HW,2013-02-06 09:45:00,
2013-02-06 03:50:00,58.3,56.4,29.93,SSE,158,6.0,6.7,93,0.00,,,0.00,WUHU216HW,2013-02-06 09:50:00,
2013-02-06 03:55:00,58.5,56.5,29.92,ESE,113,4.7,6.3,93,0.00,,,0.00,WUHU216HW,2013-02-06 09:55:00,
2013-02-06 04:00:00,58.7,56.7,29.92,ESE,113,5.4,6.3,93,0.00,,,0.00,WUHU216HW,2013-02-06 10:00:00,
2013-02-06 04:05:00,58.7,56.7,29.92,SE,135,3.4,5.6,93,0.00,,,0.00,WUHU216HW,2013-02-06 10:05:00,
2013-02-06 04:10:00,58.7,56.7,29.93,ESE,113,3.8,5.1,93,0.00,,,0.00,WUHU216HW,2013-02-06 10:10:00,
2013-02-06 04:15:00,58.9,56.9,29.94,SE,135,5.1,5.1,93,0.00,,,0.00,WUHU216HW,2013-02-06 10:15:00,
2013-02-06 04:20:00,59.0,57.1,29.94,SE,135,3.4,5.4,93,0.00,,,0.00,WUHU216HW,2013-02-06 10:20:00,
2013-02-06 04:25:00,59.0,57.1,29.94,ESE,113,2.7,5.4,93,0.00,,,0.00,WUHU216HW,2013-02-06 10:25:00,
2013-02-06 04:30:00,59.0,57.1,29.94,SSE,158,3.4,4.9,93,0.00,,,0.00,WUHU216HW,2013-02-06 10:30:00,
2013-02-06 04:35:00,59.2,57.3,29.94,SE,135,3.1,5.8,93,0.00,,,0.00,WUHU216HW,2013-02-06 10:35:00,
2013-02-06 04:40:00,59.2,57.3,29.94,ESE,113,3.1,5.8,93,0.00,,,0.00,WUHU216HW,2013-02-06 10:40:00,
2013-02-06 04:45:00,59.2,57.3,29.93,SE,135,3.4,4.0,93,0.00,,,0.00,WUHU216HW,2013-02-06 10:45:00,
2013-02-06 04:50:00,59.0,57.1,29.94,SE,135,2.0,4.0,93,0.00,,,0.00,WUHU216HW,2013-02-06 10:50:00,
2013-02-06 04:55:00,59.2,57.3,29.94,SE,135,2.5,4.5,93,0.00,,,0.00,WUHU216HW,2013-02-06 10:55:00,
2013-02-06 05:00:00,59.4,57.4,29.93,ESE,113,3.4,4.5,93,0.00,,,0.00,WUHU216HW,2013-02-06 11:00:00,
2013-02-06 05:05:00,59.4,57.4,29.93,SE,135,4.0,4.5,93,0.00,,,0.00,WUHU216HW,2013-02-06 11:05:00,
2013-02-06 05:10:00,59.4,57.7,29.93,ESE,113,3.6,4.0,94,0.00,,,0.00,WUHU216HW,2013-02-06 11:10:00,
2013-02-06 05:15:00,59.4,57.4,29.93,ESE,113,4.0,4.0,93,0.00,,,0.00,WUHU216HW,2013-02-06 11:15:00,
2013-02-06 05:20:00,59.4,57.4,29.93,ESE,113,2.9,4.0,93,0.00,,,0.00,WUHU216HW,2013-02-06 11:20:00,
2013-02-06 05:25:00,59.4,57.4,29.93,SE,135,3.6,3.6,93,0.00,,,0.00,WUHU216HW,2013-02-06 11:25:00,
2013-02-06 05:30:00,59.6,57.6,29.93,ESE,113,4.7,4.7,93,0.00,,,0.00,WUHU216HW,2013-02-06 11:30:00,
2013-02-06 05:35:00,59.6,57.6,29.93,SE,135,3.8,4.7,93,0.00,,,0.00,WUHU216HW,2013-02-06 11:35:00,
2013-02-06 05:40:00,59.8,57.8,29.93,ESE,113,2.5,4.7,93,0.00,,,0.00,WUHU216HW,2013-02-06 11:40:00,
2013-02-06 05:45:00,59.8,57.8,29.94,ESE,113,3.4,4.7,93,0.00,,,0.00,WUHU216HW,2013-02-06 11:45:00,
2013-02-06 05:50:00,59.8,57.8,29.94,ESE,113,3.4,4.3,93,0.00,,,0.00,WUHU216HW,2013-02-06 11:50:00,
2013-02-06 05:55:00,59.8,57.8,29.94,SE,135,3.6,3.6,93,0.00,,,0.00,WUHU216HW,2013-02-06 11:55:00,
2013-02-06 06:00:00,59.9,58.0,29.94,SE,135,2.9,3.6,93,0.00,,,0.00,WUHU216HW,2013-02-06 12:00:00,
2013-02-06 06:05:00,60.1,58.2,29.94,ESE,113,4.7,4.7,93,0.00,,,0.00,WUHU216HW,2013-02-06 12:05:00,
2013-02-06 06:10:00,60.1,58.2,29.93,SE,135,4.3,4.7,93,0.00,,,0.00,WUHU216HW,2013-02-06 12:10:00,
2013-02-06 06:15:00,60.1,58.2,29.94,ESE,113,4.9,5.1,93,0.00,,,0.00,WUHU216HW,2013-02-06 12:15:00,
2013-02-06 06:20:00,60.3,58.3,29.94,ESE,113,5.1,6.0,93,0.00,,,0.00,WUHU216HW,2013-02-06 12:20:00,
2013-02-06 06:25:00,60.3,58.3,29.94,SE,135,5.8,6.5,93,0.00,,,0.00,WUHU216HW,2013-02-06 12:25:00,
2013-02-06 06:30:00,60.5,58.5,29.94,SE,135,4.7,7.2,93,0.00,,,0.00,WUHU216HW,2013-02-06 12:30:00,
2013-02-06 06:35:00,60.5,58.5,29.93,ESE,113,6.9,8.5,93,0.00,,,0.00,WUHU216HW,2013-02-06 12:35:00,
2013-02-06 06:40:00,60.5,58.5,29.93,SE,135,4.9,8.5,93,0.00,,,0.00,WUHU216HW,2013-02-06 12:40:00,
2013-02-06 06:45:00,60.5,58.5,29.94,ESE,113,5.4,6.9,93,0.00,,,0.00,WUHU216HW,2013-02-06 12:45:00,
2013-02-06 06:50:00,60.7,58.7,29.94,SE,135,4.7,6.9,93,0.00,,,0.00,WUHU216HW,2013-02-06 12:50:00,
2013-02-06 06:55:00,60.7,58.7,29.94,SSE,158,6.9,6.9,93,0.00,,,0.00,WUHU216HW,2013-02-06 12:55:00,
2013-02-06 07:00:00,60.8,58.9,29.94,SSE,158,5.4,6.9,93,0.00,,,0.00,WUHU216HW,2013-02-06 13:00:00,
2013-02-06 07:05:00,60.8,58.9,29.94,SE,135,4.3,6.7,93,0.00,,,0.00,WUHU216HW,2013-02-06 13:05:00,
2013-02-06 07:10:00,60.8,58.9,29.94,ESE,113,5.4,6.0,93,0.00,,,0.00,WUHU216HW,2013-02-06 13:10:00,
2013-02-06 07:15:00,61.0,59.1,29.94,ESE,113,4.3,6.0,93,0.00,,,0.00,WUHU216HW,2013-02-06 13:15:00,
2013-02-06 07:20:00,61.0,59.1,29.94,SE,135,7.2,7.2,93,0.00,,,0.00,WUHU216HW,2013-02-06 13:20:00,
2013-02-06 07:25:00,61.0,59.1,29.94,SE,135,5.1,7.6,93,0.00,,,0.00,WUHU216HW,2013-02-06 13:25:00,
2013-02-06 07:30:00,61.2,59.2,29.94,ESE,113,6.3,7.6,93,0.00,,,0.00,WUHU216HW,2013-02-06 13:30:00,
2013-02-06 07:35:00,61.2,59.2,29.94,ESE,113,5.1,7.2,93,0.00,,,0.00,WUHU216HW,2013-02-06 13:35:00,
2013-02-06 07:40:00,61.2,59.2,29.94,SE,135,4.3,6.3,93,0.00,,,0.00,WUHU216HW,2013-02-06 13:40:00,
2013-02-06 07:45:00,61.4,59.4,29.94,ESE,113,6.9,6.9,93,0.00,,,0.00,WUHU216HW,2013-02-06 13:45:00,
2013-02-06 07:50:00,61.6,59.6,29.94,ESE,113,5.8,7.2,93,0.00,,,0.00,WUHU216HW,2013-02-06 13:50:00,
2013-02-06 07:55:00,61.6,59.6,29.95,SSE,158,6.0,7.2,93,0.00,,,0.00,WUHU216HW,2013-02-06 13:55:00,
2013-02-06 08:00:00,61.6,59.6,29.94,SE,135,5.4,6.5,93,0.00,,,0.00,WUHU216HW,2013-02-06 14:00:00,
2013-02-06 08:05:00,61.7,59.8,29.95,SE,135,6.5,9.8,93,0.00,,,0.00,WUHU216HW,2013-02-06 14:05:00,
2013-02-06 08:10:00,61.7,59.8,29.95,SE,135,5.6,9.8,93,0.00,,,0.00,WUHU216HW,2013-02-06 14:10:00,
2013-02-06 08:15:00,61.9,60.0,29.95,ESE,113,6.9,8.7,93,0.00,,,0.00,WUHU216HW,2013-02-06 14:15:00,
2013-02-06 08:20:00,61.9,60.0,29.95,SE,135,8.9,8.9,93,0.00,,,0.00,WUHU216HW,2013-02-06 14:20:00,
2013-02-06 08:25:00,61.9,60.0,29.95,SE,135,9.2,9.2,93,0.00,,,0.00,WUHU216HW,2013-02-06 14:25:00,
2013-02-06 08:30:00,61.9,60.0,29.95,SE,135,4.9,9.2,93,0.00,,,0.00,WUHU216HW,2013-02-06 14:30:00,
2013-02-06 08:35:00,62.1,60.1,29.95,SE,135,8.5,8.5,93,0.00,,,0.00,WUHU216HW,2013-02-06 14:35:00,
2013-02-06 08:40:00,62.1,60.1,29.95,SE,135,7.8,9.2,93,0.00,,,0.00,WUHU216HW,2013-02-06 14:40:00,
2013-02-06 08:45:00,62.1,60.1,29.96,SE,135,5.4,9.2,93,0.00,,,0.00,WUHU216HW,2013-02-06 14:45:00,
2013-02-06 08:50:00,62.1,59.8,29.96,SE,135,5.4,8.3,92,0.00,,,0.00,WUHU216HW,2013-02-06 14:50:00,
2013-02-06 08:55:00,62.3,59.9,29.96,SE,135,8.3,8.5,92,0.00,,,0.00,WUHU216HW,2013-02-06 14:55:00,
2013-02-06 09:00:00,62.3,59.9,29.96,SE,135,6.0,9.2,92,0.00,,,0.00,WUHU216HW,2013-02-06 15:00:00,
2013-02-06 09:05:00,62.3,59.9,29.96,SSE,158,7.2,9.2,92,0.00,,,0.00,WUHU216HW,2013-02-06 15:05:00,
2013-02-06 09:10:00,62.3,59.9,29.96,South,180,6.9,7.8,92,0.00,,,0.00,WUHU216HW,2013-02-06 15:10:00,
2013-02-06 09:15:00,62.3,59.9,29.97,SSE,158,8.9,8.9,92,0.00,,,0.00,WUHU216HW,2013-02-06 15:15:00,
2013-02-06 09:20:00,62.3,59.9,29.97,SE,135,7.2,8.9,92,0.00,,,0.00,WUHU216HW,2013-02-06 15:20:00,
2013-02-06 09:25:00,62.3,59.9,29.97,SSE,158,6.5,9.2,92,0.00,,,0.00,WUHU216HW,2013-02-06 15:25:00,
2013-02-06 09:30:00,62.6,60.3,29.97,SE,135,4.0,9.2,92,0.00,,,0.00,WUHU216HW,2013-02-06 15:30:00,
2013-02-06 09:35:00,62.6,60.3,29.97,SE,135,5.4,6.3,92,0.00,,,0.00,WUHU216HW,2013-02-06 15:35:00,
2013-02-06 09:40:00,63.0,60.7,29.97,SE,135,4.7,6.3,92,0.00,,,0.00,WUHU216HW,2013-02-06 15:40:00,
2013-02-06 09:45:00,63.2,60.8,29.97,SSE,158,4.7,5.8,92,0.00,,,0.00,WUHU216HW,2013-02-06 15:45:00,
2013-02-06 09:50:00,63.4,61.0,29.97,SSE,158,3.1,5.8,92,0.00,,,0.00,WUHU216HW,2013-02-06 15:50:00,
2013-02-06 09:55:00,63.5,60.9,29.96,ESE,113,4.7,5.6,91,0.00,,,0.00,WUHU216HW,2013-02-06 15:55:00,
2013-02-06 10:00:00,63.9,61.0,29.96,SSE,158,7.6,7.6,90,0.00,,,0.00,WUHU216HW,2013-02-06 16:00:00,
2013-02-06 10:05:00,64.1,60.8,29.96,SSE,158,4.7,7.6,89,0.00,,,0.00,WUHU216HW,2013-02-06 16:05:00,
2013-02-06 10:10:00,64.3,61.4,29.96,SE,135,4.0,7.6,90,0.00,,,0.00,WUHU216HW,2013-02-06 16:10:00,
2013-02-06 10:15:00,64.4,61.2,29.97,SSE,158,4.9,6.9,89,0.00,,,0.00,WUHU216HW,2013-02-06 16:15:00,
2013-02-06 10:20:00,64.6,61.4,29.97,SSE,158,3.6,5.8,89,0.00,,,0.00,WUHU216HW,2013-02-06 16:20:00,
2013-02-06 10:25:00,65.0,61.4,29.96,SE,135,3.4,5.8,88,0.00,,,0.00,WUHU216HW,2013-02-06 16:25:00,
2013-02-06 10:30:00,65.3,61.4,29.96,SE,135,4.0,7.2,87,0.00,,,0.00,WUHU216HW,2013-02-06 16:30:00,
2013-02-06 10:35:00,65.5,61.6,29.96,SE,135,3.1,7.2,87,0.00,,,0.00,WUHU216HW,2013-02-06 16:35:00,
2013-02-06 10:40:00,65.3,61.0,29.96,ESE,113,4.9,6.0,86,0.00,,,0.00,WUHU216HW,2013-02-06 16:40:00,
2013-02-06 10:45:00,65.5,61.6,29.96,South,180,4.3,6.0,87,0.00,,,0.00,WUHU216HW,2013-02-06 16:45:00,
2013-02-06 10:50:00,65.5,61.8,29.96,SSE,158,3.4,5.1,88,0.00,,,0.00,WUHU216HW,2013-02-06 16:50:00,
2013-02-06 10:55:00,65.7,61.4,29.96,SSE,158,3.4,5.1,86,0.00,,,0.00,WUHU216HW,2013-02-06 16:55:00,
2013-02-06 11:00:00,65.5,61.2,29.96,South,180,3.6,4.9,86,0.00,,,0.00,WUHU216HW,2013-02-06 17:00:00,
2013-02-06 11:05:00,65.7,61.4,29.95,SSE,158,1.8,4.3,86,0.00,,,0.00,WUHU216HW,2013-02-06 17:05:00,
2013-02-06 11:10:00,65.9,61.6,29.96,SW,225,2.5,4.0,86,0.00,,,0.00,WUHU216HW,2013-02-06 17:10:00,
2013-02-06 11:15:00,66.1,61.8,29.96,South,180,2.5,2.9,86,0.00,,,0.00,WUHU216HW,2013-02-06 17:15:00,
2013-02-06 11:20:00,66.6,62.3,29.95,South,180,3.1,3.1,86,0.00,,,0.00,WUHU216HW,2013-02-06 17:20:00,
2013-02-06 11:25:00,67.3,62.6,29.95,South,180,3.4,3.6,85,0.00,,,0.00,WUHU216HW,2013-02-06 17:25:00,
2013-02-06 11:30:00,67.7,62.6,29.95,South,180,2.5,3.6,84,0.00,,,0.00,WUHU216HW,2013-02-06 17:30:00,
2013-02-06 11:35:00,68.0,63.0,29.95,SSE,158,3.1,3.1,84,0.00,,,0.00,WUHU216HW,2013-02-06 17:35:00,
2013-02-06 11:40:00,68.0,61.7,29.95,SSW,203,6.5,6.5,80,0.00,,,0.00,WUHU216HW,2013-02-06 17:40:00,
2013-02-06 11:45:00,68.0,61.7,29.94,SSW,203,1.6,6.5,80,0.00,,,0.00,WUHU216HW,2013-02-06 17:45:00,
2013-02-06 11:50:00,68.0,61.0,29.94,West,270,0.7,3.6,78,0.00,,,0.00,WUHU216HW,2013-02-06 17:50:00,
2013-02-06 11:55:00,68.4,60.9,29.94,WSW,248,1.8,3.6,77,0.00,,,0.00,WUHU216HW,2013-02-06 17:55:00,
2013-02-06 12:00:00,68.8,61.3,29.94,SW,225,3.8,3.8,77,0.00,,,0.00,WUHU216HW,2013-02-06 18:00:00,
2013-02-06 12:05:00,69.5,61.9,29.93,SE,135,3.1,4.0,77,0.00,,,0.00,WUHU216HW,2013-02-06 18:05:00,
2013-02-06 12:10:00,70.2,61.8,29.93,SSW,203,4.3,4.3,75,0.00,,,0.00,WUHU216HW,2013-02-06 18:10:00,
2013-02-06 12:15:00,70.7,61.7,29.93,SW,225,0.7,4.3,73,0.00,,,0.00,WUHU216HW,2013-02-06 18:15:00,
2013-02-06 12:20:00,71.1,61.6,29.93,SSE,158,3.4,4.0,72,0.00,,,0.00,WUHU216HW,2013-02-06 18:20:00,
2013-02-06 12:25:00,71.3,61.7,29.92,SSE,158,2.2,3.8,72,0.00,,,0.00,WUHU216HW,2013-02-06 18:25:00,
2013-02-06 12:30:00,71.6,61.4,29.92,SSW,203,4.5,4.7,70,0.00,,,0.00,WUHU216HW,2013-02-06 18:30:00,
2013-02-06 12:35:00,72.0,60.8,29.92,SSW,203,3.1,6.7,68,0.00,,,0.00,WUHU216HW,2013-02-06 18:35:00,
2013-02-06 12:40:00,72.2,61.5,29.92,South,180,6.3,7.4,69,0.00,,,0.00,WUHU216HW,2013-02-06 18:40:00,
2013-02-06 12:45:00,72.5,61.8,29.91,South,180,4.7,7.4,69,0.00,,,0.00,WUHU216HW,2013-02-06 18:45:00,
2013-02-06 12:50:00,73.1,62.4,29.91,SSE,158,4.0,7.2,69,0.00,,,0.00,WUHU216HW,2013-02-06 18:50:00,
2013-02-06 12:55:00,73.4,61.8,29.90,SE,135,5.8,6.3,67,0.00,,,0.00,WUHU216HW,2013-02-06 18:55:00,
2013-02-06 13:00:00,73.1,61.5,29.90,South,180,6.9,7.8,67,0.00,,,0.00,WUHU216HW,2013-02-06 19:00:00,
2013-02-06 13:05:00,73.1,61.0,29.90,SSE,158,3.4,7.8,66,0.00,,,0.00,WUHU216HW,2013-02-06 19:05:00,
2013-02-06 13:10:00,73.1,61.9,29.89,SSE,158,6.3,8.1,68,0.00,,,0.00,WUHU216HW,2013-02-06 19:10:00,
2013-02-06 13:15:00,73.4,62.3,29.89,SE,135,3.1,9.4,68,0.00,,,0.00,WUHU216HW,2013-02-06 19:15:00,
2013-02-06 13:20:00,73.8,63.1,29.89,SSE,158,7.2,9.4,69,0.00,,,0.00,WUHU216HW,2013-02-06 19:20:00,
2013-02-06 13:25:00,74.3,63.1,29.89,South,180,5.4,8.7,68,0.00,,,0.00,WUHU216HW,2013-02-06 19:25:00,
2013-02-06 13:30:00,74.5,62.8,29.88,SSE,158,4.5,8.5,67,0.00,,,0.00,WUHU216HW,2013-02-06 19:30:00,
2013-02-06 13:35:00,74.5,62.4,29.88,South,180,5.6,12.8,66,0.00,,,0.00,WUHU216HW,2013-02-06 19:35:00,
2013-02-06 13:40:00,74.3,62.6,29.87,SSE,158,8.5,12.8,67,0.00,,,0.00,WUHU216HW,2013-02-06 19:40:00,
2013-02-06 13:45:00,74.0,62.8,29.87,SE,135,5.8,8.5,68,0.00,,,0.00,WUHU216HW,2013-02-06 19:45:00,
2013-02-06 13:50:00,73.8,62.7,29.87,SSE,158,7.6,9.8,68,0.00,,,0.00,WUHU216HW,2013-02-06 19:50:00,
2013-02-06 13:55:00,73.4,62.3,29.87,SSE,158,4.7,9.8,68,0.00,,,0.00,WUHU216HW,2013-02-06 19:55:00,
2013-02-06 14:00:00,73.8,62.7,29.86,South,180,7.8,8.5,68,0.00,,,0.00,WUHU216HW,2013-02-06 20:00:00,
2013-02-06 14:05:00,74.0,61.5,29.86,SE,135,8.5,8.5,65,0.00,,,0.00,WUHU216HW,2013-02-06 20:05:00,
2013-02-06 14:10:00,74.0,61.9,29.86,SE,135,7.4,8.5,66,0.00,,,0.00,WUHU216HW,2013-02-06 20:10:00,
2013-02-06 14:15:00,74.0,61.5,29.86,SSE,158,8.7,8.7,65,0.00,,,0.00,WUHU216HW,2013-02-06 20:15:00,
2013-02-06 14:20:00,74.2,61.7,29.86,SSE,158,6.5,8.7,65,0.00,,,0.00,WUHU216HW,2013-02-06 20:20:00,
2013-02-06 14:25:00,74.5,62.4,29.85,South,180,6.9,8.5,66,0.00,,,0.00,WUHU216HW,2013-02-06 20:25:00,
2013-02-06 14:30:00,74.2,61.7,29.85,SSE,158,8.5,8.5,65,0.00,,,0.00,WUHU216HW,2013-02-06 20:30:00,
2013-02-06 14:35:00,73.8,61.8,29.85,SSW,203,6.3,9.8,66,0.00,,,0.00,WUHU216HW,2013-02-06 20:35:00,
2013-02-06 14:40:00,73.8,61.3,29.85,ESE,113,7.6,9.8,65,0.00,,,0.00,WUHU216HW,2013-02-06 20:40:00,
2013-02-06 14:45:00,73.1,61.5,29.85,SE,135,6.9,10.5,67,0.00,,,0.00,WUHU216HW,2013-02-06 20:45:00,
2013-02-06 14:50:00,72.9,61.7,29.85,SE,135,6.9,10.5,68,0.00,,,0.00,WUHU216HW,2013-02-06 20:50:00,
2013-02-06 14:55:00,72.9,61.3,29.85,South,180,7.4,7.4,67,0.00,,,0.00,WUHU216HW,2013-02-06 20:55:00,
2013-02-06 15:00:00,72.4,61.7,29.85,ESE,113,7.4,7.4,69,0.00,,,0.00,WUHU216HW,2013-02-06 21:00:00,
2013-02-06 15:05:00,72.4,61.7,29.85,SE,135,3.4,7.4,69,0.00,,,0.00,WUHU216HW,2013-02-06 21:05:00,
2013-02-06 15:10:00,72.0,60.8,29.85,SE,135,4.9,6.3,68,0.00,,,0.00,WUHU216HW,2013-02-06 21:10:00,
2013-02-06 15:15:00,72.0,60.8,29.84,SE,135,7.4,7.4,68,0.00,,,0.00,WUHU216HW,2013-02-06 21:15:00,
2013-02-06 15:20:00,71.8,60.7,29.84,SSE,158,4.7,8.5,68,0.00,,,0.00,WUHU216HW,2013-02-06 21:20:00,
2013-02-06 15:25:00,71.8,60.7,29.84,SE,135,7.6,8.9,68,0.00,,,0.00,WUHU216HW,2013-02-06 21:25:00,
2013-02-06 15:30:00,71.6,60.1,29.84,SSE,158,6.3,8.9,67,0.00,,,0.00,WUHU216HW,2013-02-06 21:30:00,
2013-02-06 15:35:00,71.3,59.8,29.84,South,180,6.9,9.8,67,0.00,,,0.00,WUHU216HW,2013-02-06 21:35:00,
2013-02-06 15:40:00,71.3,60.6,29.83,South,180,7.6,9.8,69,0.00,,,0.00,WUHU216HW,2013-02-06 21:40:00,
2013-02-06 15:45:00,71.1,60.0,29.83,South,180,8.5,9.2,68,0.00,,,0.00,WUHU216HW,2013-02-06 21:45:00,
2013-02-06 15:50:00,71.1,60.4,29.83,SSE,158,7.8,9.2,69,0.00,,,0.00,WUHU216HW,2013-02-06 21:50:00,
2013-02-06 15:55:00,71.5,60.8,29.83,SSE,158,6.0,9.2,69,0.00,,,0.00,WUHU216HW,2013-02-06 21:55:00,
2013-02-06 16:00:00,71.6,61.4,29.83,South,180,8.5,9.8,70,0.00,,,0.00,WUHU216HW,2013-02-06 22:00:00,
2013-02-06 16:05:00,71.6,60.9,29.83,SE,135,9.2,10.5,69,0.00,,,0.00,WUHU216HW,2013-02-06 22:05:00,
2013-02-06 16:10:00,71.6,60.5,29.83,South,180,9.8,10.5,68,0.00,,,0.00,WUHU216HW,2013-02-06 22:10:00,
2013-02-06 16:15:00,71.3,59.8,29.83,SE,135,6.7,9.8,67,0.00,,,0.00,WUHU216HW,2013-02-06 22:15:00,
2013-02-06 16:20:00,70.6,59.5,29.83,SSE,158,5.6,8.5,68,0.00,,,0.00,WUHU216HW,2013-02-06 22:20:00,
2013-02-06 16:25:00,70.2,59.5,29.83,South,180,5.8,7.6,69,0.00,,,0.00,WUHU216HW,2013-02-06 22:25:00,
2013-02-06 16:30:00,70.0,59.3,29.83,SE,135,6.3,9.4,69,0.00,,,0.00,WUHU216HW,2013-02-06 22:30:00,
2013-02-06 16:35:00,70.2,59.5,29.83,South,180,6.3,9.4,69,0.00,,,0.00,WUHU216HW,2013-02-06 22:35:00,
2013-02-06 16:40:00,70.6,59.9,29.83,SSE,158,7.2,8.5,69,0.00,,,0.00,WUHU216HW,2013-02-06 22:40:00,
2013-02-06 16:45:00,70.7,59.7,29.83,South,180,9.4,9.4,68,0.00,,,0.00,WUHU216HW,2013-02-06 22:45:00,
2013-02-06 16:50:00,70.6,59.5,29.83,ESE,113,5.4,9.4,68,0.00,,,0.00,WUHU216HW,2013-02-06 22:50:00,
2013-02-06 16:55:00,70.2,59.9,29.83,SE,135,10.3,10.3,70,0.00,,,0.00,WUHU216HW,2013-02-06 22:55:00,
2013-02-06 17:00:00,69.5,59.7,29.83,ESE,113,9.6,10.3,71,0.00,,,0.00,WUHU216HW,2013-02-06 23:00:00,
2013-02-06 17:05:00,68.8,59.0,29.83,SE,135,7.8,10.1,71,0.00,,,0.00,WUHU216HW,2013-02-06 23:05:00,
2013-02-06 17:10:00,68.4,59.0,29.83,SE,135,4.5,9.6,72,0.00,,,0.00,WUHU216HW,2013-02-06 23:10:00,
2013-02-06 17:15:00,68.0,59.5,29.83,ESE,113,6.3,9.6,74,0.00,,,0.00,WUHU216HW,2013-02-06 23:15:00,
2013-02-06 17:20:00,67.7,59.5,29.83,SE,135,7.6,9.2,75,0.00,,,0.00,WUHU216HW,2013-02-06 23:20:00,
2013-02-06 17:25:00,67.5,59.7,29.82,SE,135,6.7,8.9,76,0.00,,,0.00,WUHU216HW,2013-02-06 23:25:00,
2013-02-06 17:30:00,67.5,60.0,29.83,SE,135,9.2,9.2,77,0.00,,,0.00,WUHU216HW,2013-02-06 23:30:00,
2013-02-06 17:35:00,67.3,59.9,29.83,ESE,113,6.5,9.2,77,0.00,,,0.00,WUHU216HW,2013-02-06 23:35:00,
2013-02-06 17:40:00,67.3,60.3,29.83,SE,135,9.8,10.3,78,0.00,,,0.00,WUHU216HW,2013-02-06 23:40:00,
2013-02-06 17:45:00,67.0,60.0,29.83,SE,135,8.3,11.4,78,0.00,,,0.00,WUHU216HW,2013-02-06 23:45:00,
2013-02-06 17:50:00,66.8,59.8,29.83,SE,135,6.7,11.4,78,0.00,,,0.00,WUHU216HW,2013-02-06 23:50:00,
2013-02-06 17:55:00,66.6,60.0,29.83,SE,135,7.6,9.4,79,0.00,,,0.00,WUHU216HW,2013-02-06 23:55:00,
2013-02-06 18:00:00,66.2,59.9,29.83,SSE,158,6.3,12.1,80,0.00,,,0.00,WUHU216HW,2013-02-07 00:00:00,
2013-02-06 18:05:00,66.1,59.8,29.83,SE,135,4.7,12.1,80,0.00,,,0.00,WUHU216HW,2013-02-07 00:05:00,
2013-02-06 18:10:00,65.9,59.6,29.83,SE,135,6.0,9.2,80,0.00,,,0.00,WUHU216HW,2013-02-07 00:10:00,
2013-02-06 18:15:00,65.7,59.8,29.84,SE,135,4.3,9.2,81,0.00,,,0.00,WUHU216HW,2013-02-07 00:15:00,
2013-02-06 18:20:00,65.5,59.6,29.84,ESE,113,4.9,8.5,81,0.00,,,0.00,WUHU216HW,2013-02-07 00:20:00,
2013-02-06 18:25:00,65.3,59.7,29.84,SE,135,4.5,6.5,82,0.00,,,0.00,WUHU216HW,2013-02-07 00:25:00,
2013-02-06 18:30:00,65.2,59.5,29.84,ESE,113,6.5,7.2,82,0.00,,,0.00,WUHU216HW,2013-02-07 00:30:00,
2013-02-06 18:35:00,65.2,59.5,29.84,ESE,113,4.7,7.2,82,0.00,,,0.00,WUHU216HW,2013-02-07 00:35:00,
2013-02-06 18:40:00,65.0,59.3,29.84,ESE,113,6.5,7.2,82,0.00,,,0.00,WUHU216HW,2013-02-07 00:40:00,
2013-02-06 18:45:00,65.0,59.7,29.84,SE,135,6.9,8.7,83,0.00,,,0.00,WUHU216HW,2013-02-07 00:45:00,
2013-02-06 18:50:00,65.0,59.7,29.84,SE,135,6.7,8.7,83,0.00,,,0.00,WUHU216HW,2013-02-07 00:50:00,
2013-02-06 18:55:00,64.8,59.5,29.84,ESE,113,6.0,7.6,83,0.00,,,0.00,WUHU216HW,2013-02-07 00:55:00,
2013-02-06 19:00:00,64.8,59.9,29.84,SE,135,8.5,9.8,84,0.00,,,0.00,WUHU216HW,2013-02-07 01:00:00,
2013-02-06 19:05:00,64.4,59.1,29.85,ESE,113,10.5,10.5,83,0.00,,,0.00,WUHU216HW,2013-02-07 01:05:00,
2013-02-06 19:10:00,64.4,59.1,29.85,SE,135,8.5,10.5,83,0.00,,,0.00,WUHU216HW,2013-02-07 01:10:00,
2013-02-06 19:15:00,64.3,59.0,29.85,ESE,113,7.6,9.8,83,0.00,,,0.00,WUHU216HW,2013-02-07 01:15:00,
2013-02-06 19:20:00,64.3,59.0,29.85,SE,135,8.3,9.8,83,0.00,,,0.00,WUHU216HW,2013-02-07 01:20:00,
2013-02-06 19:25:00,64.3,59.0,29.85,ESE,113,5.4,9.8,83,0.00,,,0.00,WUHU216HW,2013-02-07 01:25:00,
2013-02-06 19:30:00,64.1,58.8,29.85,SE,135,9.8,9.8,83,0.00,,,0.00,WUHU216HW,2013-02-07 01:30:00,
2013-02-06 19:35:00,64.1,58.8,29.85,SE,135,10.1,10.1,83,0.00,,,0.00,WUHU216HW,2013-02-07 01:35:00,
2013-02-06 19:40:00,64.1,58.8,29.85,SSE,158,7.4,10.1,83,0.00,,,0.00,WUHU216HW,2013-02-07 01:40:00,
2013-02-06 19:45:00,64.1,58.8,29.86,ESE,113,7.2,9.2,83,0.00,,,0.00,WUHU216HW,2013-02-07 01:45:00,
2013-02-06 19:50:00,63.9,58.6,29.86,ESE,113,5.8,8.1,83,0.00,,,0.00,WUHU216HW,2013-02-07 01:50:00,
2013-02-06 19:55:00,63.9,58.6,29.86,SE,135,7.6,7.6,83,0.00,,,0.00,WUHU216HW,2013-02-07 01:55:00,
2013-02-06 20:00:00,63.9,58.6,29.86,SE,135,7.4,9.2,83,0.00,,,0.00,WUHU216HW,2013-02-07 02:00:00,
2013-02-06 20:05:00,63.7,58.8,29.86,SE,135,7.2,9.2,84,0.00,,,0.00,WUHU216HW,2013-02-07 02:05:00,
2013-02-06 20:10:00,63.7,58.8,29.87,SE,135,6.3,9.2,84,0.00,,,0.00,WUHU216HW,2013-02-07 02:10:00,
2013-02-06 20:16:00,63.7,58.8,29.87,ESE,113,7.8,8.3,84,0.00,,,0.00,WUHU216HW,2013-02-07 02:16:00,
2013-02-06 20:21:00,63.7,58.8,29.87,SE,135,7.6,8.9,84,0.00,,,0.00,WUHU216HW,2013-02-07 02:21:00,
2013-02-06 20:26:00,63.7,58.8,29.88,SE,135,7.6,8.9,84,0.00,,,0.00,WUHU216HW,2013-02-07 02:26:00,
2013-02-06 20:31:00,63.7,58.8,29.88,SE,135,5.4,7.6,84,0.00,,,0.00,WUHU216HW,2013-02-07 02:31:00,
2013-02-06 20:36:00,63.7,58.8,29.88,SSE,158,6.3,6.7,84,0.00,,,0.00,WUHU216HW,2013-02-07 02:36:00,
2013-02-06 20:41:00,63.7,58.8,29.88,SE,135,6.7,6.9,84,0.00,,,0.00,WUHU216HW,2013-02-07 02:41:00,
2013-02-06 20:46:00,63.5,59.0,29.88,ESE,113,9.4,9.4,85,0.00,,,0.00,WUHU216HW,2013-02-07 02:46:00,
2013-02-06 20:51:00,63.4,58.8,29.88,ESE,113,9.6,9.6,85,0.00,,,0.00,WUHU216HW,2013-02-07 02:51:00,
2013-02-06 20:56:00,63.2,59.0,29.87,SE,135,8.1,9.6,86,0.00,,,0.00,WUHU216HW,2013-02-07 02:56:00,
2013-02-06 21:01:00,63.0,58.8,29.87,SE,135,6.9,8.1,86,0.00,,,0.00,WUHU216HW,2013-02-07 03:01:00,
2013-02-06 21:06:00,62.8,58.6,29.88,ESE,113,5.8,10.3,86,0.00,,,0.00,WUHU216HW,2013-02-07 03:06:00,
2013-02-06 21:11:00,62.8,59.0,29.88,SE,135,8.5,10.3,87,0.00,,,0.00,WUHU216HW,2013-02-07 03:11:00,
2013-02-06 21:16:00,63.0,59.1,29.88,ESE,113,6.3,8.7,87,0.00,,,0.00,WUHU216HW,2013-02-07 03:16:00,
2013-02-06 21:21:00,63.0,58.8,29.88,ESE,113,5.8,8.7,86,0.00,,,0.00,WUHU216HW,2013-02-07 03:21:00,
2013-02-06 21:26:00,63.0,58.8,29.88,SSE,158,5.1,7.8,86,0.00,,,0.00,WUHU216HW,2013-02-07 03:26:00,
2013-02-06 21:31:00,63.0,58.8,29.88,SE,135,4.7,7.8,86,0.00,,,0.00,WUHU216HW,2013-02-07 03:31:00,
2013-02-06 21:36:00,63.0,58.8,29.87,SE,135,5.8,7.6,86,0.00,,,0.00,WUHU216HW,2013-02-07 03:36:00,
2013-02-06 21:41:00,62.8,58.6,29.87,SE,135,6.3,7.6,86,0.00,,,0.00,WUHU216HW,2013-02-07 03:41:00,
2013-02-06 21:46:00,62.8,58.6,29.88,SSE,158,7.4,11.9,86,0.00,,,0.00,WUHU216HW,2013-02-07 03:46:00,
2013-02-06 21:51:00,62.6,58.8,29.87,ESE,113,9.6,11.9,87,0.00,,,0.00,WUHU216HW,2013-02-07 03:51:00,
2013-02-06 21:56:00,62.5,58.6,29.87,SE,135,7.8,9.6,87,0.00,,,0.00,WUHU216HW,2013-02-07 03:56:00,
2013-02-06 22:01:00,62.5,58.6,29.87,ESE,113,7.6,8.1,87,0.00,,,0.00,WUHU216HW,2013-02-07 04:01:00,
2013-02-06 22:06:00,62.3,58.4,29.88,ESE,113,7.6,10.1,87,0.00,,,0.00,WUHU216HW,2013-02-07 04:06:00,
2013-02-06 22:11:00,62.3,58.4,29.88,ESE,113,3.8,10.1,87,0.00,,,0.00,WUHU216HW,2013-02-07 04:11:00,
2013-02-06 22:16:00,62.1,58.2,29.88,SE,135,3.8,7.8,87,0.00,,,0.00,WUHU216HW,2013-02-07 04:16:00,
2013-02-06 22:21:00,62.1,58.2,29.88,SE,135,7.2,7.2,87,0.00,,,0.00,WUHU216HW,2013-02-07 04:21:00,
2013-02-06 22:26:00,62.1,58.2,29.88,ESE,113,5.4,7.6,87,0.00,,,0.00,WUHU216HW,2013-02-07 04:26:00,
2013-02-06 22:31:00,61.9,58.1,29.88,SE,135,5.4,7.6,87,0.00,,,0.00,WUHU216HW,2013-02-07 04:31:00,
2013-02-06 22:36:00,61.7,57.9,29.87,SE,135,6.9,6.9,87,0.00,,,0.00,WUHU216HW,2013-02-07 04:36:00,
2013-02-06 22:41:00,61.6,58.1,29.87,SE,135,6.7,7.2,88,0.00,,,0.00,WUHU216HW,2013-02-07 04:41:00,
2013-02-06 22:46:00,61.4,57.9,29.88,ESE,113,5.1,7.2,88,0.00,,,0.00,WUHU216HW,2013-02-07 04:46:00,
2013-02-06 22:51:00,61.2,57.7,29.88,ESE,113,5.6,6.7,88,0.00,,,0.00,WUHU216HW,2013-02-07 04:51:00,
2013-02-06 22:56:00,61.0,57.5,29.88,SE,135,4.0,5.6,88,0.00,,,0.00,WUHU216HW,2013-02-07 04:56:00,
2013-02-06 23:00:00,61.0,57.5,29.88,SE,135,5.8,5.8,88,0.00,,,0.00,WUHU216HW,2013-02-07 05:00:00,
2013-02-06 23:05:00,60.8,57.6,29.88,SE,135,6.5,6.5,89,0.00,,,0.00,WUHU216HW,2013-02-07 05:05:00,
2013-02-06 23:10:00,60.8,57.6,29.88,SE,135,7.2,7.2,89,0.00,,,0.00,WUHU216HW,2013-02-07 05:10:00,
2013-02-06 23:15:00,60.8,57.6,29.88,SSE,158,7.8,7.8,89,0.00,,,0.00,WUHU216HW,2013-02-07 05:15:00,
2013-02-06 23:20:00,60.8,57.6,29.88,SSE,158,7.6,7.8,89,0.00,,,0.00,WUHU216HW,2013-02-07 05:20:00,
2013-02-06 23:25:00,60.8,57.6,29.87,South,180,6.9,7.8,89,0.00,,,0.00,WUHU216HW,2013-02-07 05:25:00,
2013-02-06 23:30:00,60.7,57.4,29.88,SE,135,6.0,7.6,89,0.00,,,0.00,WUHU216HW,2013-02-07 05:30:00,
2013-02-06 23:35:00,60.7,57.4,29.88,SSE,158,7.6,7.6,89,0.00,,,0.00,WUHU216HW,2013-02-07 05:35:00,
2013-02-06 23:40:00,60.5,57.2,29.87,SE,135,6.3,7.8,89,0.00,,,0.00,WUHU216HW,2013-02-07 05:40:00,
2013-02-06 23:45:00,60.3,57.1,29.87,South,180,4.9,7.8,89,0.00,,,0.00,WUHU216HW,2013-02-07 05:45:00,
2013-02-06 23:50:00,60.1,56.9,29.88,ESE,113,3.8,7.6,89,0.00,,,0.00,WUHU216HW,2013-02-07 05:50:00,
2013-02-06 23:55:00,60.1,56.9,29.87,SSE,158,4.0,7.2,89,0.00,,,0.00,WUHU216HW,2013-02-07 05:55:00,